Regional Weather Roundup
Issued by NWS

Home | Current Version | Previous Version | Text Only | Print | Product List | Glossary On
Versions: 1 2 3 4 5 6 7 8 9 10 11 12 13 14 15 16 17 18 19 20 21 22 23 24 25 26 27 28
000
ASPQ40 PGUM 221712
RWRPQ
WEATHER ROUNDUP FOR THE MARIANAS AND MICRONESIA
NATIONAL WEATHER SERVICE TIYAN GU
300 AM CHST MON JAN 23 2017

GUZ001>004-221800-
MARIANA ISLANDS-

CITY           SKY/WX    TMP DP  RH WIND       PRES   REMARKS
GUAM AIRPORT   PTCLDY    79  73  83 NE16G23   29.96F
ANDERSEN AFB   MOCLDY    79  72  78 NE20G31   29.98F
ROTA AIRPORT   NOT AVBL
TINIAN AP      NOT AVBL
SAIPAN AP      PTCLDY    77  72  83 NE13      29.98F

$$

PMZ161-221800-
REPUBLIC OF PALAU-

CITY           SKY/WX    TMP DP  RH WIND       PRES   REMARKS
KOROR AP       MOCLDY    81  77  89 NE10G20   29.83F
KOROR WSO      CLOUDY    81  77  89 E13       29.85F

$$

PMZ171>174-221800-
FEDERATED STATES OF MICRONESIA-

CITY           SKY/WX    TMP DP  RH WIND       PRES   REMARKS
YAP AIRPORT    CLOUDY    79  77  94 VRB6      29.85F
CHUUK AP       CLOUDY    79  72  78 VRB7      29.78F
POHNPEI AP     NOT AVBL
POHNPEI WSO    CLOUDY    81  77  89 NE7       29.78F
KOSRAE AP      NOT AVBL

$$

PMZ181-221800-
REPUBLIC OF THE MARSHALL ISLANDS-

CITY           SKY/WX    TMP DP  RH WIND       PRES   REMARKS
KWAJALEIN AP   PTCLDY    81  75  83 NE18      29.81R
MAJURO AP      NOT AVBL
MAJURO WSO     MOCLDY    82  77  83 NE10      29.73F HX  91

$$





USA.gov is the U.S. government's official web portal to all federal, state and local government web resources and services.